User: anonymous   Login
Location: Arrodets-la-Barthe
(43.0306°N, 0.2829°E)
Time: 23:59:51
(UTC+00:00)
Language:

Altair 2 - Orbit

View from above orbital plane
View from above orbital plane
View from above satellite
View from above satellite

Ground track
Ground track

The orbit data is extracted from the following two-line orbital elements,

1 01739U 65093B   22226.25185343  .00000111  00000-0  64771-4 0  9990
2 01739  59.7051  38.4406 0088914  36.1866 324.5148 14.51819435966362
Epoch (UTC): 14 August 2022 06:02:40
Eccentricity: 0.0088914
inclination: 59.7051°
perigee height: 656 km
apogee height: 783 km
right ascension of ascending node: 38.4406°
argument of perigee: 36.1866°
revolutions per day: 14.51819435
mean anomaly at epoch: 324.5148°
orbit number at epoch: 96636

The dashed part of the orbit path shows where the satellite is in the earth's shadow,  

DLR